Zurück zum Katalog

SL-12 DEB

LostHEO
NORAD 43579·DEBRIS·🇷🇺 Russia

Gestartet Mar 1, 2010 von Baikonur Cosmodrome

Loading…

Nächste Überflüge (nächste 24 Stunden)

TLE

VeraltetSource: Space-Track

Epoche: Mar 30, 2019, 22:33 UTC

1 43579U 10007AF  19089.93979409  .00067152  00000-0  56352-1 0  9996
2 43579  65.2171  65.0963 5758746  32.8536 352.4374  4.30221966 12374

Verfolge SL-12 DEB in Echtzeit mit AllMySat

Download on the App Store